^^
Paulen-Weather Station Historical Data
Daily Summary for January 29, 2020 Units:  Metric    English   Both
Daily Weekly Monthly Yearly Custom
  High: Low: Average:
Temperature: 7 °C 2 °C 3.5 °C
Dew Point: 4 °C 1 °C 2.6 °C
Humidity: 97% 82% 93%
Wind Speed: 29km/h 0km/h 9.4km/h
Wind Gust: 32km/h - -
Wind- - West
Pressure: 990.69 hPa 981.68 hPa -
Precipitation: 2.21 mm    
Historical Graphs
 
 
Tabular Data for January 29, 2020
Time Temperature Dew Point Pressure Wind Wind Speed Wind Gust Humidity Rainfall Rate (Hourly) solar
00:04 3 °C 2 °C 981.68 hPa NNE 29 km/h 32 km/h 95% 0 mm 0 W/m2
00:09 3 °C 2 °C 981.75 hPa NNE 29 km/h 29 km/h 96% 0 mm 0 W/m2
00:14 3 °C 2 °C 981.75 hPa NNE 27 km/h 32 km/h 96% 0.2 mm 0 W/m2
00:19 3 °C 2 °C 981.78 hPa NNE 24 km/h 27 km/h 96% 0.2 mm 0 W/m2
00:24 3 °C 2 °C 981.88 hPa NNE 26 km/h 24 km/h 95% 0.2 mm 0 W/m2
00:29 3 °C 2 °C 981.88 hPa NNE 24 km/h 27 km/h 95% 0.2 mm 0 W/m2
00:34 3 °C 2 °C 981.88 hPa NNE 24 km/h 27 km/h 95% 0.2 mm 0 W/m2
00:39 3 °C 2 °C 981.92 hPa NNE 21 km/h 26 km/h 95% 0.2 mm 0 W/m2
00:44 3 °C 2 °C 981.95 hPa NNE 26 km/h 29 km/h 95% 0.41 mm 0 W/m2
00:49 3 °C 2 °C 981.92 hPa NNE 19 km/h 29 km/h 95% 0.41 mm 0 W/m2
00:54 3 °C 2 °C 981.95 hPa NNE 19 km/h 20 km/h 96% 0.41 mm 0 W/m2
00:59 3 °C 2 °C 981.98 hPa NNE 22 km/h 23 km/h 96% 0.41 mm 0 W/m2
01:04 3 °C 2 °C 982.05 hPa NNE 22 km/h 24 km/h 96% 0.41 mm 0 W/m2
01:09 3 °C 2 °C 982.09 hPa NNE 23 km/h 24 km/h 96% 0.41 mm 0 W/m2
01:14 3 °C 3 °C 982.12 hPa NNE 18 km/h 26 km/h 96% 0.41 mm 0 W/m2
01:19 3 °C 3 °C 982.15 hPa NNE 19 km/h 21 km/h 96% 0.41 mm 0 W/m2
01:24 3 °C 3 °C 982.19 hPa NNE 17 km/h 23 km/h 96% 0.41 mm 0 W/m2
01:29 3 °C 3 °C 982.26 hPa NNE 15 km/h 19 km/h 96% 0.41 mm 0 W/m2
01:34 3 °C 3 °C 982.26 hPa NNE 16 km/h 16 km/h 96% 0.41 mm 0 W/m2
01:39 3 °C 3 °C 982.26 hPa NNE 17 km/h 19 km/h 96% 0.41 mm 0 W/m2
01:44 3 °C 3 °C 982.32 hPa NNE 17 km/h 19 km/h 96% 0.41 mm 0 W/m2
01:49 3 °C 3 °C 982.36 hPa NNE 15 km/h 19 km/h 96% 0.2 mm 0 W/m2
01:54 3 °C 3 °C 982.43 hPa NNE 16 km/h 19 km/h 96% 0.2 mm 0 W/m2
01:59 3 °C 3 °C 982.49 hPa NNE 15 km/h 19 km/h 96% 0.2 mm 0 W/m2
02:04 3 °C 3 °C 982.56 hPa NNE 13 km/h 16 km/h 96% 0.2 mm 0 W/m2
02:09 3 °C 3 °C 982.63 hPa NNE 13 km/h 14 km/h 96% 0.2 mm 0 W/m2
02:14 3 °C 3 °C 982.76 hPa NNE 14 km/h 14 km/h 96% 0.2 mm 0 W/m2
02:19 3 °C 3 °C 982.83 hPa NNE 14 km/h 14 km/h 96% 0 mm 0 W/m2
02:24 3 °C 3 °C 982.87 hPa NNE 13 km/h 14 km/h 96% 0 mm 0 W/m2
02:29 3 °C 2 °C 983 hPa NNW 10 km/h 14 km/h 96% 0 mm 0 W/m2
02:34 3 °C 2 °C 983.1 hPa NW 6 km/h 13 km/h 96% 0 mm 0 W/m2
02:39 3 °C 2 °C 983.14 hPa NW 4 km/h 8 km/h 96% 0 mm 0 W/m2
02:44 3 °C 2 °C 983.2 hPa NW 6 km/h 8 km/h 96% 0 mm 0 W/m2
02:49 3 °C 2 °C 983.27 hPa NW 6 km/h 8 km/h 96% 0 mm 0 W/m2
02:54 3 °C 2 °C 983.41 hPa NNW 5 km/h 8 km/h 96% 0 mm 0 W/m2
02:59 3 °C 2 °C 983.41 hPa NNW 4 km/h 6 km/h 96% 0 mm 0 W/m2
03:04 3 °C 2 °C 983.44 hPa NNW 3 km/h 5 km/h 96% 0 mm 0 W/m2
03:09 3 °C 2 °C 983.51 hPa NNW 3 km/h 3 km/h 96% 0.2 mm 0 W/m2
03:14 3 °C 2 °C 983.54 hPa NW 4 km/h 3 km/h 96% 0.2 mm 0 W/m2
03:19 3 °C 2 °C 983.64 hPa NW 5 km/h 6 km/h 96% 0.2 mm 0 W/m2
03:24 3 °C 2 °C 983.68 hPa NW 3 km/h 5 km/h 96% 0.2 mm 0 W/m2
03:29 3 °C 2 °C 983.71 hPa NW 6 km/h 5 km/h 96% 0.2 mm 0 W/m2
03:34 3 °C 2 °C 983.81 hPa NW 6 km/h 8 km/h 96% 0.2 mm 0 W/m2
03:39 3 °C 2 °C 983.85 hPa NW 5 km/h 8 km/h 96% 0.41 mm 0 W/m2
03:44 3 °C 2 °C 983.92 hPa NW 7 km/h 5 km/h 96% 0.41 mm 0 W/m2
03:49 2 °C 2 °C 984.02 hPa NW 7 km/h 11 km/h 97% 0.41 mm 0 W/m2
03:54 2 °C 2 °C 984.12 hPa NNW 6 km/h 10 km/h 96% 0.41 mm 0 W/m2
03:59 2 °C 2 °C 984.12 hPa NW 8 km/h 8 km/h 96% 0.41 mm 0 W/m2
04:04 2 °C 2 °C 984.19 hPa NNW 10 km/h 10 km/h 96% 0.41 mm 0 W/m2
04:09 2 °C 2 °C 984.22 hPa NW 9 km/h 13 km/h 97% 0.41 mm 0 W/m2
04:14 2 °C 2 °C 984.29 hPa NNW 9 km/h 10 km/h 97% 0.2 mm 0 W/m2
04:19 2 °C 2 °C 984.36 hPa NNW 9 km/h 10 km/h 97% 0.41 mm 0 W/m2
04:24 2 °C 2 °C 984.42 hPa NNW 9 km/h 11 km/h 97% 0.41 mm 0 W/m2
04:29 2 °C 2 °C 984.42 hPa NNW 8 km/h 11 km/h 97% 0.41 mm 0 W/m2
04:34 2 °C 2 °C 984.49 hPa NNW 10 km/h 11 km/h 97% 0.41 mm 0 W/m2
04:39 2 °C 2 °C 984.56 hPa NNW 9 km/h 13 km/h 97% 0.41 mm 0 W/m2
04:44 2 °C 2 °C 984.59 hPa NNW 13 km/h 13 km/h 97% 0.2 mm 0 W/m2
04:49 2 °C 2 °C 984.59 hPa NNW 12 km/h 13 km/h 97% 0.2 mm 0 W/m2
04:54 2 °C 2 °C 984.69 hPa NNW 13 km/h 14 km/h 97% 0.2 mm 0 W/m2
04:59 2 °C 2 °C 984.73 hPa NNW 12 km/h 16 km/h 97% 0.2 mm 0 W/m2
05:04 2 °C 2 °C 984.73 hPa NNW 11 km/h 14 km/h 97% 0.41 mm 0 W/m2
05:09 2 °C 2 °C 984.83 hPa NNW 10 km/h 13 km/h 97% 0.41 mm 0 W/m2
05:14 2 °C 2 °C 984.9 hPa NNW 10 km/h 11 km/h 97% 0.41 mm 0 W/m2
05:19 2 °C 2 °C 984.93 hPa NNW 9 km/h 11 km/h 97% 0.41 mm 0 W/m2
05:24 2 °C 2 °C 985.03 hPa NNW 8 km/h 10 km/h 97% 0.41 mm 0 W/m2
05:29 2 °C 2 °C 985.1 hPa NNW 10 km/h 11 km/h 97% 0.41 mm 0 W/m2
05:34 2 °C 2 °C 985.2 hPa NNW 9 km/h 11 km/h 97% 0.41 mm 0 W/m2
05:39 2 °C 2 °C 985.27 hPa NNW 9 km/h 10 km/h 97% 0.41 mm 0 W/m2
05:44 2 °C 2 °C 985.27 hPa NNW 9 km/h 13 km/h 97% 0.41 mm 0 W/m2
05:49 2 °C 2 °C 985.37 hPa NNW 7 km/h 11 km/h 97% 0.41 mm 0 W/m2
05:54 2 °C 2 °C 985.44 hPa NNW 7 km/h 8 km/h 97% 0.41 mm 0 W/m2
05:59 2 °C 2 °C 985.47 hPa NNW 8 km/h 10 km/h 97% 0.41 mm 0 W/m2
06:04 2 °C 2 °C 985.47 hPa NNW 8 km/h 11 km/h 97% 0.41 mm 0 W/m2
06:09 3 °C 2 °C 985.47 hPa N 10 km/h 10 km/h 97% 0.2 mm 0 W/m2
06:14 3 °C 2 °C 985.51 hPa N 12 km/h 13 km/h 96% 0.2 mm 0 W/m2
06:19 3 °C 2 °C 985.54 hPa NNW 11 km/h 13 km/h 96% 0.2 mm 0 W/m2
06:24 3 °C 2 °C 985.61 hPa N 13 km/h 14 km/h 96% 0.2 mm 0 W/m2
06:29 3 °C 2 °C 985.68 hPa N 11 km/h 14 km/h 96% 0 mm 0 W/m2
06:34 3 °C 2 °C 985.74 hPa N 10 km/h 11 km/h 96% 0 mm 0 W/m2
06:39 3 °C 2 °C 985.74 hPa N 8 km/h 13 km/h 96% 0 mm 0 W/m2
06:44 3 °C 2 °C 985.74 hPa NNW 10 km/h 10 km/h 96% 0 mm 0 W/m2
06:49 3 °C 2 °C 985.81 hPa NNW 9 km/h 11 km/h 95% 0 mm 0 W/m2
06:54 3 °C 2 °C 985.88 hPa NNW 9 km/h 10 km/h 95% 0 mm 0 W/m2
06:59 3 °C 2 °C 985.91 hPa NNW 8 km/h 11 km/h 95% 0 mm 0 W/m2
07:04 2 °C 2 °C 985.98 hPa NNW 10 km/h 11 km/h 95% 0 mm 0 W/m2
07:09 2 °C 2 °C 986.05 hPa NNW 10 km/h 11 km/h 95% 0 mm 0 W/m2
07:14 2 °C 2 °C 986.22 hPa NNW 9 km/h 11 km/h 95% 0 mm 0 W/m2
07:19 2 °C 2 °C 986.25 hPa NNW 8 km/h 10 km/h 95% 0 mm 0 W/m2
07:24 2 °C 2 °C 986.32 hPa NNW 7 km/h 8 km/h 95% 0 mm 0 W/m2
07:29 2 °C 2 °C 986.32 hPa NNW 6 km/h 8 km/h 95% 0 mm 0 W/m2
07:34 2 °C 1 °C 986.32 hPa NW 6 km/h 8 km/h 95% 0 mm 0 W/m2
07:39 2 °C 1 °C 986.35 hPa NW 3 km/h 6 km/h 95% 0 mm 0 W/m2
07:44 2 °C 1 °C 986.39 hPa Calm   5 km/h 95% 0 mm 0 W/m2
07:49 2 °C 1 °C 986.46 hPa NW 2 km/h 3 km/h 95% 0 mm 0 W/m2
07:54 2 °C 1 °C 986.52 hPa NW 4 km/h 3 km/h 95% 0 mm 0 W/m2
07:59 2 °C 1 °C 986.66 hPa NW 2 km/h 5 km/h 95% 0 mm 0 W/m2
08:04 2 °C 1 °C 986.73 hPa NW 1 km/h 3 km/h 95% 0 mm 0 W/m2
08:09 2 °C 1 °C 986.73 hPa NW 3 km/h 3 km/h 95% 0 mm 0 W/m2
08:14 2 °C 1 °C 986.83 hPa NW 4 km/h 5 km/h 95% 0 mm 0 W/m2
08:19 2 °C 1 °C 986.96 hPa WNW 4 km/h 5 km/h 95% 0 mm 0 W/m2
08:24 2 °C 1 °C 987.06 hPa W 8 km/h 6 km/h 95% 0 mm 0 W/m2
08:29 2 °C 1 °C 987.1 hPa W 7 km/h 10 km/h 95% 0 mm 0 W/m2
08:34 2 °C 1 °C 987.1 hPa WNW 10 km/h 11 km/h 95% 0 mm 5 W/m2
08:39 2 °C 1 °C 987.13 hPa WNW 9 km/h 13 km/h 96% 0 mm 7 W/m2
08:44 2 °C 1 °C 987.23 hPa WNW 8 km/h 10 km/h 96% 0 mm 9 W/m2
08:49 2 °C 1 °C 987.3 hPa W 7 km/h 11 km/h 96% 0 mm 14 W/m2
08:54 2 °C 1 °C 987.3 hPa WNW 7 km/h 10 km/h 96% 0 mm 19 W/m2
08:59 2 °C 1 °C 987.34 hPa WNW 6 km/h 10 km/h 96% 0 mm 26 W/m2
09:04 2 °C 1 °C 987.37 hPa WNW 5 km/h 8 km/h 96% 0 mm 42 W/m2
09:09 2 °C 1 °C 987.47 hPa W 6 km/h 10 km/h 96% 0 mm 47 W/m2
09:14 2 °C 1 °C 987.64 hPa WNW 6 km/h 6 km/h 96% 0 mm 53 W/m2
09:19 2 °C 1 °C 987.71 hPa W 7 km/h 8 km/h 96% 0 mm 56 W/m2
09:24 2 °C 1 °C 987.78 hPa WNW 6 km/h 8 km/h 96% 0 mm 63 W/m2
09:29 2 °C 2 °C 987.81 hPa W 5 km/h 8 km/h 96% 0 mm 63 W/m2
09:34 2 °C 2 °C 987.91 hPa WNW 4 km/h 5 km/h 96% 0 mm 58 W/m2
09:39 2 °C 2 °C 988.01 hPa W 4 km/h 6 km/h 96% 0 mm 72 W/m2
09:44 2 °C 2 °C 988.05 hPa W 5 km/h 5 km/h 96% 0 mm 83 W/m2
09:49 2 °C 2 °C 988.11 hPa WNW 5 km/h 6 km/h 96% 0 mm 90 W/m2
09:54 2 °C 2 °C 988.11 hPa WNW 9 km/h 9 km/h 95% 0 mm 97 W/m2
09:59 2 °C 2 °C 988.18 hPa NW 8 km/h 14 km/h 95% 0 mm 102 W/m2
10:04 2 °C 2 °C 988.22 hPa NW 7 km/h 11 km/h 95% 0 mm 107 W/m2
10:09 2 °C 2 °C 988.25 hPa NW 7 km/h 10 km/h 95% 0 mm 114 W/m2
10:14 2 °C 2 °C 988.35 hPa NW 9 km/h 10 km/h 95% 0 mm 116 W/m2
10:19 3 °C 2 °C 988.45 hPa NNW 7 km/h 11 km/h 95% 0 mm 134 W/m2
10:24 3 °C 2 °C 988.49 hPa NW 8 km/h 10 km/h 95% 0 mm 134 W/m2
10:29 3 °C 2 °C 988.55 hPa NNW 13 km/h 11 km/h 94% 0 mm 139 W/m2
10:34 3 °C 2 °C 988.59 hPa NNW 13 km/h 16 km/h 94% 0 mm 172 W/m2
10:39 3 °C 2 °C 988.69 hPa NW 13 km/h 16 km/h 94% 0 mm 172 W/m2
10:44 3 °C 3 °C 988.76 hPa NW 10 km/h 14 km/h 94% 0 mm 151 W/m2
10:49 4 °C 3 °C 988.79 hPa WNW 7 km/h 14 km/h 93% 0 mm 149 W/m2
10:54 4 °C 3 °C 988.89 hPa NW 7 km/h 10 km/h 93% 0 mm 153 W/m2
10:59 4 °C 3 °C 988.93 hPa NW 8 km/h 10 km/h 93% 0 mm 156 W/m2
11:04 4 °C 3 °C 988.96 hPa NW 6 km/h 10 km/h 93% 0 mm 160 W/m2
11:09 4 °C 3 °C 988.96 hPa WNW 7 km/h 8 km/h 93% 0 mm 167 W/m2
11:14 4 °C 3 °C 988.99 hPa NW 11 km/h 13 km/h 92% 0 mm 172 W/m2
11:19 4 °C 3 °C 989.13 hPa NW 8 km/h 13 km/h 92% 0 mm 171 W/m2
11:24 4 °C 3 °C 989.2 hPa NW 9 km/h 11 km/h 92% 0 mm 174 W/m2
11:29 4 °C 3 °C 989.23 hPa NW 15 km/h 14 km/h 92% 0 mm 176 W/m2
11:34 4 °C 3 °C 989.3 hPa NW 9 km/h 19 km/h 91% 0 mm 179 W/m2
11:39 4 °C 3 °C 989.4 hPa WNW 10 km/h 13 km/h 92% 0 mm 183 W/m2
11:44 4 °C 3 °C 989.47 hPa NW 9 km/h 14 km/h 91% 0 mm 185 W/m2
11:49 5 °C 3 °C 989.47 hPa NW 10 km/h 11 km/h 91% 0 mm 188 W/m2
11:54 5 °C 3 °C 989.5 hPa NW 11 km/h 11 km/h 91% 0 mm 190 W/m2
11:59 5 °C 3 °C 989.57 hPa NW 12 km/h 13 km/h 90% 0 mm 192 W/m2
12:04 5 °C 3 °C 989.64 hPa NW 8 km/h 19 km/h 90% 0 mm 193 W/m2
12:09 5 °C 3 °C 989.67 hPa NW 10 km/h 9 km/h 90% 0 mm 195 W/m2
12:14 5 °C 3 °C 989.71 hPa NW 11 km/h 13 km/h 90% 0 mm 197 W/m2
12:19 5 °C 3 °C 989.71 hPa NW 7 km/h 19 km/h 90% 0 mm 197 W/m2
12:24 5 °C 3 °C 989.81 hPa WNW 10 km/h 14 km/h 89% 0 mm 199 W/m2
12:29 5 °C 4 °C 989.84 hPa NW 9 km/h 13 km/h 89% 0 mm 199 W/m2
12:34 5 °C 4 °C 989.81 hPa NW 8 km/h 13 km/h 89% 0 mm 199 W/m2
12:39 5 °C 4 °C 989.81 hPa NNW 8 km/h 11 km/h 88% 0 mm 202 W/m2
12:44 5 °C 4 °C 989.84 hPa NW 13 km/h 12 km/h 88% 0 mm 199 W/m2
12:49 5 °C 3 °C 989.88 hPa NNW 15 km/h 19 km/h 87% 0 mm 197 W/m2
12:54 5 °C 3 °C 989.98 hPa NNW 9 km/h 19 km/h 87% 0 mm 197 W/m2
12:59 5 °C 3 °C 990.01 hPa NW 8 km/h 11 km/h 87% 0 mm 197 W/m2
13:04 6 °C 4 °C 990.04 hPa NW 8 km/h 10 km/h 86% 0 mm 195 W/m2
13:09 6 °C 4 °C 990.08 hPa NW 6 km/h 10 km/h 86% 0 mm 193 W/m2
13:14 6 °C 4 °C 990.08 hPa NW 7 km/h 8 km/h 86% 0 mm 190 W/m2
13:19 6 °C 4 °C 990.08 hPa NW 11 km/h 11 km/h 85% 0 mm 188 W/m2
13:24 6 °C 4 °C 990.18 hPa NW 12 km/h 14 km/h 85% 0 mm 186 W/m2
13:29 6 °C 4 °C 990.21 hPa WNW 7 km/h 13 km/h 85% 0 mm 185 W/m2
13:34 6 °C 4 °C 990.21 hPa WNW 7 km/h 10 km/h 85% 0 mm 183 W/m2
13:39 6 °C 4 °C 990.28 hPa NW 6 km/h 10 km/h 85% 0 mm 181 W/m2
13:44 6 °C 4 °C 990.38 hPa WNW 12 km/h 10 km/h 85% 0 mm 181 W/m2
13:49 6 °C 4 °C 990.42 hPa W 9 km/h 19 km/h 84% 0 mm 156 W/m2
13:54 6 °C 4 °C 990.38 hPa WNW 7 km/h 11 km/h 85% 0 mm 169 W/m2
13:59 6 °C 4 °C 990.35 hPa WNW 6 km/h 11 km/h 86% 0 mm 171 W/m2
14:04 6 °C 4 °C 990.35 hPa WNW 8 km/h 8 km/h 85% 0 mm 49 W/m2
14:09 6 °C 4 °C 990.35 hPa W 10 km/h 11 km/h 85% 0 mm 90 W/m2
14:14 6 °C 4 °C 990.38 hPa WNW 8 km/h 11 km/h 85% 0 mm 118 W/m2
14:19 6 °C 4 °C 990.38 hPa WNW 9 km/h 10 km/h 85% 0 mm 113 W/m2
14:24 6 °C 4 °C 990.38 hPa WNW 12 km/h 13 km/h 85% 0 mm 137 W/m2
14:29 6 °C 4 °C 990.35 hPa WNW 11 km/h 16 km/h 85% 0 mm 158 W/m2
14:34 6 °C 4 °C 990.38 hPa WNW 9 km/h 13 km/h 85% 0 mm 179 W/m2
14:39 6 °C 4 °C 990.35 hPa WNW 8 km/h 11 km/h 84% 0 mm 165 W/m2
14:44 7 °C 4 °C 990.38 hPa W 9 km/h 10 km/h 84% 0 mm 132 W/m2
14:49 7 °C 4 °C 990.45 hPa WNW 11 km/h 13 km/h 83% 0 mm 123 W/m2
14:54 7 °C 4 °C 990.52 hPa WNW 8 km/h 13 km/h 83% 0 mm 118 W/m2
14:59 6 °C 4 °C 990.48 hPa WNW 9 km/h 11 km/h 82% 0 mm 58 W/m2
15:04 6 °C 4 °C 990.48 hPa WNW 6 km/h 13 km/h 83% 0 mm 62 W/m2
15:09 6 °C 4 °C 990.52 hPa W 7 km/h 6 km/h 84% 0 mm 58 W/m2
15:14 6 °C 4 °C 990.59 hPa W 6 km/h 8 km/h 84% 0 mm 54 W/m2
15:19 6 °C 4 °C 990.69 hPa W 5 km/h 8 km/h 85% 0 mm 47 W/m2
15:24 6 °C 4 °C 990.69 hPa W 5 km/h 6 km/h 85% 0 mm 25 W/m2
15:29 6 °C 4 °C 990.65 hPa WNW 5 km/h 8 km/h 85% 0 mm 19 W/m2
15:34 6 °C 4 °C 990.59 hPa W 5 km/h 8 km/h 86% 0 mm 16 W/m2
15:39 6 °C 4 °C 990.65 hPa W 5 km/h 8 km/h 86% 0 mm 14 W/m2
15:44 6 °C 4 °C 990.65 hPa W 4 km/h 5 km/h 86% 0 mm 14 W/m2
15:49 6 °C 4 °C 990.62 hPa W 2 km/h 5 km/h 87% 0 mm 23 W/m2
15:54 6 °C 4 °C 990.55 hPa W 1 km/h 3 km/h 88% 0 mm 23 W/m2
15:59 6 °C 4 °C 990.52 hPa Calm   3 km/h 88% 0 mm 19 W/m2
16:04 6 °C 4 °C 990.48 hPa Calm     88% 0 mm 14 W/m2
16:09 6 °C 4 °C 990.45 hPa Calm     89% 0 mm 11 W/m2
16:14 5 °C 4 °C 990.38 hPa Calm     89% 0 mm 7 W/m2
16:19 5 °C 4 °C 990.35 hPa Calm     90% 0 mm 7 W/m2
16:24 5 °C 4 °C 990.32 hPa NNE 2 km/h 3 km/h 90% 0 mm 0 W/m2
16:29 5 °C 4 °C 990.45 hPa NW 18 km/h 17 km/h 90% 0.2 mm 0 W/m2
16:32 5 °C 4 °C 990.38 hPa NW 19 km/h 26 km/h 90% 0.61 mm 0 W/m2
Compliments of Weather Underground - 2 mb